sat.trackr.live / text

‹ back to catalog

STARLINK-34881

NORAD 65347 · 2025-189AA

PAYLOAD ACTIVE UNKNOWN

§ Identity

Operator
Country
US
Launch date
2025-08-27
Launch site
AFETR
Launch vehicle
Mass (kg)
RCS (m²)

Purposes: comms

External: N2YO · Heavens-Above · Gunter

§ Orbital elements

Epoch: 2026-09-20T15:05:09.136608Z

Period
94.01 min
Inclination
53.1599°
Eccentricity
0.0000814
Mean motion
15.31694599 rev/d
Perigee alt
470.2 km
Apogee alt
471.3 km
Semi-major
6,848.9 km
B*
2.5919e-4
RAAN
19.7938°
Arg perigee
94.3040°
Mean anomaly
265.8054°
Rev number
6,097

§ Raw data

STARLINK-348811 65347U 25189AA  26263.62857797  .00007685  00000+0  25919-3 0  99942 65347  53.1599  19.7938 0000814  94.3040 265.8054 15.31694599 60973

JSON: /api/v1/satellites/65347 · /tle

For live sub-satellite position, see the globe view (requires WebGL).

§ Visibility from observer

Set your observer location to see the next 7 days of passes ≥ 10°. The values pass through the URL so the page stays shareable.

No JS? Fill the form by hand. The geolocation button needs JavaScript.